Location: Camp at the Woods
(43.2055°N, 93.0905°W)
Time: 07:33:33
(UTC+00:00)

Cosmos 1603 - Pass Details

Date: 05 December 2023
Orbit: 832 x 857 km, 71.0° (Epoch: 29 February)

Event Time Altitude Azimuth Distance (km) Brightness Sun altitude
Rises 23:16:56 0° 341° (NNW) 3,422 6.8 -7.3°
Reaches altitude 10° 23:19:35 10° 349° (N) 2,478 6.0 -7.7°
Maximum altitude 23:24:51 38° 57° (ENE) 1,274 4.2 -8.6°
Drops below altitude 10° 23:30:03 10° 124° (SE) 2,449 5.8 -9.5°
Sets 23:32:39 0° 133° (SE) 3,376 6.6 -9.9°
